| time (UTC) | temp F | wind direction | speed knots | gust knots | rain 1hr in | rain 24hr in | rain mn in | humidity % | barometer mb |
| 20260905161006 | 90 | 352 | 1.7 | 3.5 | 0.00 | 0.00 | 0.00 | 62 | 1016.0 |
| 20260905160503 | 90 | 352 | 0.0 | 3.5 | 0.00 | 0.00 | 0.00 | 60 | 1015.8 |
| 20260905160030 | 89 | 340 | 0.9 | 1.7 | 0.00 | 0.00 | 0.00 | 59 | 1015.8 |
| 20260905155511 | 89 | 340 | 0.0 | 1.7 | 0.00 | 0.00 | 0.00 | 64 | 1015.8 |
| 20260905155009 | 88 | 340 | 0.0 | 1.7 | 0.00 | 0.00 | 0.00 | 62 | 1015.7 |
| 20260905154509 | 88 | 340 | 0.9 | 1.7 | 0.00 | 0.00 | 0.00 | 64 | 1015.7 |
| 20260905154012 | 88 | 344 | 0.9 | 1.7 | 0.00 | 0.00 | 0.00 | 63 | 1015.7 |
| 20260905153510 | 88 | 41 | 0.0 | 1.7 | 0.00 | 0.00 | 0.00 | 67 | 1015.7 |
| 20260905153009 | 87 | 37 | 0.9 | 1.7 | 0.00 | 0.00 | 0.00 | 65 | 1015.7 |
| 20260905152512 | 86 | 107 | 0.0 | 1.7 | 0.00 | 0.00 | 0.00 | 65 | 1015.6 |
| 20260905152009 | 86 | 107 | 0.0 | 1.7 | 0.00 | 0.00 | 0.00 | 65 | 1015.5 |
| 20260905151531 | 85 | 113 | 0.0 | 1.7 | 0.00 | 0.00 | 0.00 | 68 | 1015.5 |
| 20260905151008 | 84 | 113 | 0.0 | 1.7 | 0.00 | 0.00 | 0.00 | 67 | 1015.3 |
| 20260905150508 | 84 | 113 | 0.0 | 1.7 | 0.00 | 0.00 | 0.00 | 71 | 1015.3 |
| 20260905150011 | 84 | 113 | 0.0 | 1.7 | 0.00 | 0.00 | 0.00 | 67 | 1015.3 |
| 20260905145521 | 84 | 113 | 0.9 | 1.7 | 0.00 | 0.00 | 0.00 | 67 | 1015.3 |
| 20260905145012 | 84 | 112 | 0.0 | 1.7 | 0.00 | 0.00 | 0.00 | 70 | 1015.3 |
| 20260905144522 | 84 | 112 | 0.0 | 1.7 | 0.00 | 0.00 | 0.00 | 68 | 1015.2 |
| 20260905144009 | 84 | 111 | 0.9 | 2.6 | 0.00 | 0.00 | 0.00 | 68 | 1015.1 |
| 20260905143507 | 83 | 96 | 0.9 | 2.6 | 0.00 | 0.00 | 0.00 | 68 | 1014.9 |
| 20260905143025 | 83 | 105 | 0.0 | 2.6 | 0.00 | 0.00 | 0.00 | 69 | 1014.7 |
| 20260905142508 | 83 | 100 | 0.9 | 2.6 | 0.00 | 0.00 | 0.00 | 69 | 1014.7 |
| 20260905142014 | 84 | 115 | 0.9 | 1.7 | 0.00 | 0.00 | 0.00 | 70 | 1014.7 |
| 20260905141519 | 83 | 88 | 0.9 | 3.5 | 0.00 | 0.00 | 0.00 | 71 | 1014.7 |
| 20260905141015 | 82 | 242 | 0.0 | 3.5 | 0.00 | 0.00 | 0.00 | 71 | 1014.4 |
| 20260905140517 | 82 | 252 | 0.9 | 3.5 | 0.00 | 0.00 | 0.00 | 72 | 1014.3 |
| 20260905140012 | 81 | 223 | 0.0 | 1.7 | 0.00 | 0.00 | 0.00 | 73 | 1014.1 |
| 20260905135514 | 81 | 105 | 0.0 | 1.7 | 0.00 | 0.00 | 0.00 | 74 | 1014.3 |
| 20260905135010 | 81 | 96 | 0.0 | 5.2 | 0.00 | 0.00 | 0.00 | 74 | 1014.4 |
| 20260905134516 | 81 | 96 | 1.7 | 5.2 | 0.00 | 0.00 | 0.00 | 74 | 1014.5 |
| 20260905134011 | 80 | 96 | 1.7 | 2.6 | 0.00 | 0.00 | 0.00 | 75 | 1014.6 |
| 20260905133515 | 80 | 283 | 0.9 | 0.9 | 0.00 | 0.00 | 0.00 | 77 | 1014.7 |
| 20260905133021 | 79 | 283 | 0.0 | 0.0 | 0.00 | 0.00 | 0.00 | 80 | 1014.8 |
| 20260905132512 | 79 | 283 | 0.0 | 0.0 | 0.00 | 0.00 | 0.00 | 78 | 1014.6 |
| 20260905132017 | 78 | 283 | 0.0 | 0.0 | 0.00 | 0.00 | 0.00 | 81 | 1014.4 |
| 20260905131541 | 77 | 283 | 0.0 | 0.0 | 0.00 | 0.00 | 0.00 | 80 | 1014.2 |
| 20260905131016 | 77 | 283 | 0.0 | 0.0 | 0.00 | 0.00 | 0.00 | 80 | 1014.1 |
| 20260905130516 | 76 | 283 | 0.0 | 0.0 | 0.00 | 0.00 | 0.00 | 81 | 1014.1 |
| 20260905130027 | 76 | 283 | 0.0 | 0.0 | 0.00 | 0.00 | 0.00 | 82 | 1014.1 |
| 20260905125515 | 75 | 283 | 0.0 | 0.0 | 0.00 | 0.00 | 0.00 | 83 | 1014.0 |
| 20260905125010 | 75 | 283 | 0.0 | 0.0 | 0.00 | 0.00 | 0.00 | 83 | 1014.0 |
| 20260905124527 | 74 | 283 | 0.0 | 0.0 | 0.00 | 0.00 | 0.00 | 84 | 1014.0 |
| 20260905124007 | 74 | 283 | 0.0 | 0.0 | 0.00 | 0.00 | 0.00 | 85 | 1013.9 |
| 20260905123510 | 74 | 283 | 0.0 | 0.0 | 0.00 | 0.00 | 0.00 | 85 | 1013.8 |
| 20260905123019 | 74 | 283 | 0.0 | 0.0 | 0.00 | 0.00 | 0.00 | 84 | 1013.7 |
| 20260905122516 | 74 | 283 | 0.0 | 0.0 | 0.00 | 0.00 | 0.00 | 84 | 1013.5 |
| 20260905122012 | 74 | 283 | 0.0 | 0.0 | 0.00 | 0.00 | 0.00 | 84 | 1013.4 |
| 20260905121525 | 74 | 283 | 0.0 | 0.0 | 0.00 | 0.00 | 0.00 | 84 | 1013.4 |
| 20260905121018 | 74 | 284 | 0.0 | 0.0 | 0.00 | 0.00 | 0.00 | 84 | 1013.4 |
| 20260905120515 | 74 | 283 | 0.0 | 0.0 | 0.00 | 0.00 | 0.00 | 85 | 1013.3 |
| 20260905120018 | 74 | 283 | 0.0 | 0.0 | 0.00 | 0.00 | 0.00 | 85 | 1013.3 |
| 20260905115513 | 74 | 283 | 0.0 | 0.0 | 0.00 | 0.00 | 0.00 | 85 | 1013.2 |
| 20260905115014 | 74 | 283 | 0.0 | 0.0 | 0.00 | 0.00 | 0.00 | 86 | 1013.2 |
| 20260905114538 | 74 | 283 | 0.0 | 0.0 | 0.00 | 0.00 | 0.00 | 86 | 1013.3 |
| 20260905114015 | 74 | 283 | 0.0 | 0.0 | 0.00 | 0.00 | 0.00 | 86 | 1013.4 |
| 20260905113518 | 74 | 283 | 0.0 | 0.0 | 0.00 | 0.00 | 0.00 | 87 | 1013.4 |
| 20260905113034 | 74 | 283 | 0.0 | 0.0 | 0.00 | 0.00 | 0.00 | 87 | 1013.5 |
| 20260905112512 | 74 | 283 | 0.0 | 0.0 | 0.00 | 0.00 | 0.00 | 86 | 1013.4 |
| 20260905112002 | 74 | 283 | 0.0 | 0.0 | 0.00 | 0.00 | 0.00 | 86 | 1013.3 |
| 20260905111504 | 74 | 283 | 0.0 | 0.0 | 0.00 | 0.00 | 0.00 | 86 | 1013.1 |
| 20260905111002 | 74 | 283 | 0.0 | 0.0 | 0.00 | 0.00 | 0.00 | 87 | 1013.2 |
| 20260905110503 | 74 | 283 | 0.0 | 0.0 | 0.00 | 0.00 | 0.00 | 86 | 1013.1 |
| 20260905110003 | 74 | 283 | 0.0 | 0.0 | 0.00 | 0.00 | 0.00 | 86 | 1013.0 |
| 20260905105505 | 74 | 283 | 0.0 | 0.0 | 0.00 | 0.00 | 0.00 | 87 | 1013.1 |
| 20260905105004 | 74 | 283 | 0.0 | 0.0 | 0.00 | 0.00 | 0.00 | 86 | 1013.1 |
| 20260905104510 | 74 | 283 | 0.0 | 0.0 | 0.00 | 0.00 | 0.00 | 86 | 1013.1 |
| 20260905104002 | 74 | 283 | 0.0 | 0.0 | 0.00 | 0.00 | 0.00 | 86 | 1013.0 |
| 20260905103502 | 75 | 283 | 0.0 | 0.0 | 0.00 | 0.00 | 0.00 | 86 | 1013.1 |
| 20260905103010 | 75 | 283 | 0.0 | 0.0 | 0.00 | 0.00 | 0.00 | 86 | 1012.9 |
| 20260905102503 | 75 | 283 | 0.0 | 0.0 | 0.00 | 0.00 | 0.00 | 86 | 1012.9 |
| 20260905102006 | 75 | 283 | 0.0 | 0.0 | 0.00 | 0.00 | 0.00 | 86 | 1012.9 |
| 20260905101504 | 75 | 283 | 0.0 | 0.0 | 0.00 | 0.00 | 0.00 | 86 | 1012.8 |
| 20260905101003 | 75 | 283 | 0.0 | 0.0 | 0.00 | 0.00 | 0.00 | 86 | 1012.8 |
| 20260905100506 | 75 | 283 | 0.0 | 0.0 | 0.00 | 0.00 | 0.00 | 86 | 1012.8 |
| 20260905100010 | 75 | 283 | 0.0 | 0.0 | 0.00 | 0.00 | 0.00 | 86 | 1012.8 |
| 20260905095502 | 75 | 283 | 0.0 | 0.0 | 0.00 | 0.00 | 0.00 | 86 | 1012.8 |
| 20260905095003 | 75 | 283 | 0.0 | 0.0 | 0.00 | 0.00 | 0.00 | 86 | 1012.7 |
| 20260905094510 | 75 | 283 | 0.0 | 0.0 | 0.00 | 0.00 | 0.00 | 86 | 1012.6 |
| 20260905094004 | 75 | 283 | 0.0 | 0.0 | 0.00 | 0.00 | 0.00 | 86 | 1012.6 |
| 20260905093507 | 75 | 283 | 0.0 | 0.0 | 0.00 | 0.00 | 0.00 | 86 | 1012.5 |
| 20260905093003 | 75 | 283 | 0.0 | 0.0 | 0.00 | 0.00 | 0.00 | 85 | 1012.4 |
| 20260905092504 | 75 | 283 | 0.0 | 0.0 | 0.00 | 0.00 | 0.00 | 84 | 1012.4 |
| 20260905092001 | 75 | 283 | 0.0 | 0.0 | 0.00 | 0.00 | 0.00 | 84 | 1012.4 |
| 20260905091504 | 75 | 283 | 0.0 | 0.0 | 0.00 | 0.00 | 0.00 | 84 | 1012.4 |
| 20260905091002 | 75 | 283 | 0.0 | 0.0 | 0.00 | 0.00 | 0.00 | 84 | 1012.5 |
| 20260905090502 | 75 | 283 | 0.0 | 0.0 | 0.00 | 0.00 | 0.00 | 85 | 1012.6 |
| 20260905090004 | 75 | 283 | 0.0 | 0.0 | 0.00 | 0.00 | 0.00 | 84 | 1012.7 |
| 20260905085508 | 75 | 283 | 0.0 | 0.0 | 0.00 | 0.00 | 0.00 | 84 | 1012.7 |
| 20260905085009 | 76 | 283 | 0.0 | 0.0 | 0.00 | 0.00 | 0.00 | 84 | 1012.7 |
| 20260905084507 | 76 | 283 | 0.0 | 0.0 | 0.00 | 0.00 | 0.00 | 84 | 1012.7 |
| 20260905084004 | 76 | 283 | 0.0 | 0.0 | 0.00 | 0.00 | 0.00 | 84 | 1012.8 |
| 20260905083503 | 76 | 283 | 0.0 | 0.0 | 0.00 | 0.00 | 0.00 | 84 | 1012.9 |
| 20260905083005 | 76 | 283 | 0.0 | 0.0 | 0.00 | 0.00 | 0.00 | 84 | 1012.9 |
| 20260905082505 | 76 | 283 | 0.0 | 0.0 | 0.00 | 0.00 | 0.00 | 84 | 1012.9 |
| 20260905082004 | 76 | 283 | 0.0 | 0.0 | 0.00 | 0.00 | 0.00 | 84 | 1012.9 |
| 20260905081508 | 76 | 283 | 0.0 | 0.0 | 0.00 | 0.00 | 0.00 | 83 | 1012.9 |
| 20260905081004 | 76 | 283 | 0.0 | 0.0 | 0.00 | 0.00 | 0.00 | 83 | 1013.0 |
| 20260905080505 | 77 | 283 | 0.0 | 0.0 | 0.00 | 0.00 | 0.00 | 83 | 1013.0 |
| 20260905080008 | 77 | 283 | 0.0 | 0.0 | 0.00 | 0.00 | 0.00 | 83 | 1013.0 |
| 20260905075505 | 77 | 283 | 0.0 | 0.0 | 0.00 | 0.00 | 0.00 | 83 | 1013.1 |
| 20260905075003 | 77 | 283 | 0.0 | 0.0 | 0.00 | 0.00 | 0.00 | 83 | 1013.2 |
| 20260905074507 | 77 | 283 | 0.0 | 0.0 | 0.00 | 0.00 | 0.00 | 83 | 1013.2 |
| 20260905074011 | 77 | 283 | 0.0 | 0.0 | 0.00 | 0.00 | 0.00 | 83 | 1013.2 |
| 20260905073506 | 77 | 283 | 0.0 | 0.0 | 0.00 | 0.00 | 0.00 | 82 | 1013.2 |
| 20260905073011 | 77 | 283 | 0.0 | 0.0 | 0.00 | 0.00 | 0.00 | 82 | 1013.3 |
| 20260905072505 | 77 | 283 | 0.0 | 0.0 | 0.00 | 0.00 | 0.00 | 82 | 1013.4 |
| 20260905072004 | 77 | 283 | 0.0 | 0.0 | 0.00 | 0.00 | 0.00 | 82 | 1013.4 |
| 20260905071510 | 77 | 283 | 0.0 | 0.0 | 0.00 | 0.00 | 0.00 | 82 | 1013.4 |
| 20260905071005 | 78 | 283 | 0.0 | 0.0 | 0.00 | 0.00 | 0.00 | 81 | 1013.3 |
| 20260905070507 | 78 | 283 | 0.0 | 0.0 | 0.00 | 0.00 | 0.00 | 80 | 1013.3 |
| 20260905070013 | 78 | 283 | 0.0 | 0.0 | 0.00 | 0.00 | 0.00 | 79 | 1013.3 |
| 20260905065508 | 79 | 283 | 0.0 | 0.0 | 0.00 | 0.00 | 0.00 | 79 | 1013.4 |
| 20260905065007 | 78 | 283 | 0.0 | 0.0 | 0.00 | 0.00 | 0.00 | 80 | 1013.4 |
| 20260905064516 | 78 | 283 | 0.0 | 0.0 | 0.00 | 0.00 | 0.00 | 80 | 1013.6 |
| 20260905064006 | 78 | 283 | 0.0 | 0.0 | 0.00 | 0.00 | 0.00 | 80 | 1013.6 |
| 20260905063503 | 78 | 283 | 0.0 | 0.0 | 0.00 | 0.00 | 0.00 | 80 | 1013.5 |
| 20260905063008 | 79 | 283 | 0.0 | 0.0 | 0.00 | 0.00 | 0.00 | 79 | 1013.4 |
| 20260905062511 | 79 | 283 | 0.0 | 0.0 | 0.00 | 0.00 | 0.00 | 80 | 1013.5 |
| 20260905062008 | 79 | 283 | 0.0 | 0.0 | 0.00 | 0.00 | 0.00 | 80 | 1013.4 |
| 20260905061512 | 79 | 283 | 0.0 | 0.0 | 0.00 | 0.00 | 0.00 | 79 | 1013.5 |
| 20260905061006 | 79 | 283 | 0.0 | 0.0 | 0.00 | 0.00 | 0.00 | 80 | 1013.4 |
| 20260905060506 | 79 | 283 | 0.0 | 0.0 | 0.00 | 0.00 | 0.00 | 80 | 1013.5 |
| 20260905060015 | 79 | 283 | 0.0 | 0.0 | 0.00 | 0.00 | 0.00 | 80 | 1013.5 |
| 20260905055507 | 79 | 283 | 0.0 | 0.0 | 0.00 | 0.00 | 0.00 | 80 | 1013.5 |
| 20260905055004 | 79 | 283 | 0.0 | 0.0 | 0.00 | 0.00 | 0.00 | 80 | 1013.5 |
| 20260905054511 | 79 | 283 | 0.0 | 0.0 | 0.00 | 0.00 | 0.00 | 79 | 1013.5 |
| 20260905054009 | 79 | 283 | 0.0 | 0.0 | 0.00 | 0.00 | 0.00 | 79 | 1013.4 |
| 20260905053507 | 80 | 283 | 0.0 | 0.0 | 0.00 | 0.00 | 0.00 | 79 | 1013.4 |
| 20260905053025 | 80 | 283 | 0.0 | 0.0 | 0.00 | 0.00 | 0.00 | 79 | 1013.3 |
| 20260905052510 | 80 | 283 | 0.0 | 0.0 | 0.00 | 0.00 | 0.00 | 79 | 1013.3 |
| 20260905052006 | 80 | 283 | 0.0 | 0.0 | 0.00 | 0.00 | 0.00 | 80 | 1013.2 |
| 20260905051514 | 80 | 283 | 0.0 | 0.0 | 0.00 | 0.00 | 0.00 | 80 | 1013.3 |
| 20260905051005 | 80 | 283 | 0.0 | 0.0 | 0.00 | 0.00 | 0.00 | 80 | 1013.3 |
| 20260905050509 | 80 | 283 | 0.0 | 0.0 | 0.00 | 0.00 | 0.00 | 79 | 1013.2 |
| 20260905050012 | 80 | 283 | 0.0 | 0.0 | 0.00 | 0.00 | 0.00 | 80 | 1013.2 |
| 20260905045508 | 80 | 283 | 0.0 | 0.0 | 0.00 | 0.00 | 0.00 | 79 | 1013.3 |
| 20260905045008 | 80 | 283 | 0.0 | 0.0 | 0.00 | 0.00 | 0.00 | 79 | 1013.3 |
| 20260905044513 | 81 | 283 | 0.0 | 0.0 | 0.00 | 0.00 | 0.00 | 79 | 1013.2 |
| 20260905044011 | 81 | 283 | 0.0 | 0.0 | 0.00 | 0.00 | 0.00 | 78 | 1013.0 |
| 20260905043510 | 81 | 283 | 0.0 | 0.0 | 0.00 | 0.00 | 0.00 | 78 | 1013.0 |
| 20260905043012 | 81 | 283 | 0.0 | 0.0 | 0.00 | 0.00 | 0.00 | 78 | 1013.0 |
| 20260905042510 | 81 | 283 | 0.0 | 0.0 | 0.00 | 0.00 | 0.00 | 77 | 1013.0 |
| 20260905042010 | 82 | 283 | 0.0 | 0.0 | 0.00 | 0.00 | 0.00 | 76 | 1012.9 |
| 20260905041516 | 82 | 283 | 0.0 | 0.0 | 0.00 | 0.00 | 0.00 | 76 | 1012.9 |
| 20260905041008 | 82 | 283 | 0.0 | 0.0 | 0.00 | 0.00 | 0.00 | 76 | 1012.9 |
| 20260905040508 | 82 | 283 | 0.0 | 0.0 | 0.00 | 0.00 | 0.00 | 76 | 1012.9 |
| 20260905040018 | 82 | 283 | 0.0 | 1.7 | 0.00 | 0.00 | 0.00 | 76 | 1012.9 |
| 20260905035511 | 82 | 283 | 0.0 | 1.7 | 0.00 | 0.00 | 0.00 | 76 | 1012.9 |
| 20260905035009 | 83 | 283 | 0.0 | 1.7 | 0.00 | 0.00 | 0.00 | 75 | 1012.9 |
| 20260905034512 | 83 | 283 | 0.0 | 0.0 | 0.00 | 0.00 | 0.00 | 75 | 1012.8 |
| 20260905034009 | 83 | 283 | 0.0 | 0.0 | 0.00 | 0.00 | 0.00 | 74 | 1012.8 |
| 20260905033508 | 83 | 284 | 0.0 | 0.0 | 0.00 | 0.00 | 0.00 | 74 | 1012.8 |
| 20260905033016 | 83 | 283 | 0.0 | 0.9 | 0.00 | 0.00 | 0.00 | 75 | 1012.7 |
| 20260905032510 | 83 | 283 | 0.0 | 1.7 | 0.00 | 0.00 | 0.00 | 74 | 1012.8 |
| 20260905032009 | 84 | 283 | 0.0 | 1.7 | 0.00 | 0.00 | 0.00 | 74 | 1012.7 |
| 20260905031519 | 84 | 283 | 0.0 | 1.7 | 0.00 | 0.00 | 0.00 | 73 | 1012.6 |
| 20260905031012 | 84 | 283 | 0.0 | 1.7 | 0.00 | 0.00 | 0.00 | 73 | 1012.6 |
| 20260905030514 | 84 | 275 | 0.0 | 1.7 | 0.00 | 0.00 | 0.00 | 73 | 1012.6 |
| 20260905030020 | 84 | 246 | 0.0 | 0.0 | 0.00 | 0.00 | 0.00 | 73 | 1012.5 |
| 20260905025511 | 84 | 246 | 0.0 | 0.0 | 0.00 | 0.00 | 0.00 | 73 | 1012.5 |
| 20260905025011 | 84 | 246 | 0.0 | 0.9 | 0.00 | 0.00 | 0.00 | 74 | 1012.5 |
| 20260905024528 | 85 | 246 | 0.0 | 0.9 | 0.00 | 0.00 | 0.00 | 73 | 1012.4 |
| 20260905024011 | 85 | 228 | 0.0 | 0.0 | 0.00 | 0.00 | 0.00 | 73 | 1012.5 |
| 20260905023508 | 85 | 228 | 0.0 | 0.0 | 0.00 | 0.00 | 0.00 | 73 | 1012.4 |
| 20260905023016 | 85 | 228 | 0.0 | 0.0 | 0.00 | 0.00 | 0.00 | 72 | 1012.4 |
| 20260905022511 | 85 | 228 | 0.0 | 0.0 | 0.00 | 0.00 | 0.00 | 72 | 1012.4 |
| 20260905022010 | 85 | 228 | 0.0 | 0.0 | 0.00 | 0.00 | 0.00 | 72 | 1012.4 |
| 20260905021515 | 85 | 228 | 0.0 | 0.0 | 0.00 | 0.00 | 0.00 | 71 | 1012.5 |
| 20260905021011 | 86 | 228 | 0.0 | 1.7 | 0.00 | 0.00 | 0.00 | 71 | 1012.4 |
| 20260905020515 | 86 | 228 | 0.0 | 1.7 | 0.00 | 0.00 | 0.00 | 72 | 1012.3 |
| 20260905020030 | 86 | 228 | 0.0 | 1.7 | 0.00 | 0.00 | 0.00 | 72 | 1012.3 |
| 20260905015511 | 86 | 228 | 0.0 | 0.0 | 0.00 | 0.00 | 0.00 | 71 | 1012.3 |
| 20260905015013 | 87 | 228 | 0.0 | 0.0 | 0.00 | 0.00 | 0.00 | 69 | 1012.2 |
| 20260905014516 | 87 | 228 | 0.0 | 0.0 | 0.00 | 0.00 | 0.00 | 69 | 1012.0 |
| 20260905014012 | 87 | 228 | 0.0 | 0.0 | 0.00 | 0.00 | 0.00 | 69 | 1011.8 |
| 20260905013511 | 87 | 228 | 0.0 | 0.0 | 0.00 | 0.00 | 0.00 | 69 | 1011.8 |
| 20260905013020 | 87 | 228 | 0.0 | 0.0 | 0.00 | 0.00 | 0.00 | 69 | 1011.7 |
| 20260905012510 | 87 | 228 | 0.0 | 0.0 | 0.00 | 0.00 | 0.00 | 69 | 1011.7 |
| 20260905012016 | 87 | 228 | 0.0 | 0.0 | 0.00 | 0.00 | 0.00 | 69 | 1011.7 |
| 20260905011521 | 87 | 228 | 0.0 | 0.0 | 0.00 | 0.00 | 0.00 | 69 | 1011.6 |
| 20260905011013 | 87 | 228 | 0.0 | 0.0 | 0.00 | 0.00 | 0.00 | 69 | 1011.6 |
| 20260905010512 | 87 | 228 | 0.0 | 0.0 | 0.00 | 0.00 | 0.00 | 69 | 1011.6 |
| 20260905010019 | 87 | 228 | 0.0 | 0.0 | 0.00 | 0.00 | 0.00 | 69 | 1011.5 |
| 20260905005512 | 87 | 228 | 0.0 | 0.0 | 0.00 | 0.00 | 0.00 | 69 | 1011.5 |
| 20260905005020 | 87 | 228 | 0.0 | 0.0 | 0.00 | 0.00 | 0.00 | 69 | 1011.5 |
| 20260905004520 | 87 | 228 | 0.0 | 0.0 | 0.00 | 0.00 | 0.00 | 69 | 1011.5 |
| 20260905004011 | 88 | 228 | 0.0 | 0.0 | 0.00 | 0.00 | 0.00 | 69 | 1011.6 |
| 20260905003510 | 88 | 228 | 0.0 | 0.0 | 0.00 | 0.00 | 0.00 | 68 | 1011.5 |
| 20260905003019 | 88 | 228 | 0.0 | 0.0 | 0.00 | 0.00 | 0.00 | 69 | 1011.5 |
| 20260905002510 | 88 | 228 | 0.0 | 0.0 | 0.00 | 0.00 | 0.00 | 69 | 1011.4 |
| 20260905002017 | 89 | 228 | 0.0 | 1.7 | 0.00 | 0.00 | 0.00 | 67 | 1011.4 |
| 20260905001521 | 89 | 228 | 0.0 | 1.7 | 0.00 | 0.00 | 0.00 | 64 | 1011.4 |
| 20260905001013 | 90 | 228 | 0.0 | 1.7 | 0.00 | 0.00 | 0.00 | 65 | 1011.4 |
| 20260905000513 | 90 | 224 | 0.0 | 4.3 | 0.00 | 0.00 | 0.00 | 66 | 1011.5 |
| 20260905000024 | 90 | 196 | 0.9 | 4.3 | 0.00 | 0.00 | 0.00 | 64 | 1011.4 |
| 20260904235511 | 90 | 319 | 0.0 | 1.7 | 0.00 | 0.00 | 0.00 | 66 | 1011.5 |
| 20260904235017 | 90 | 319 | 0.0 | 0.9 | 0.00 | 0.00 | 0.00 | 66 | 1011.5 |
| 20260904234525 | 89 | 323 | 0.0 | 1.7 | 0.00 | 0.00 | 0.00 | 67 | 1011.5 |
| 20260904234013 | 89 | 323 | 0.0 | 1.7 | 0.00 | 0.00 | 0.00 | 67 | 1011.4 |
| 20260904233513 | 89 | 323 | 0.0 | 1.7 | 0.00 | 0.00 | 0.00 | 63 | 1011.5 |
| 20260904233023 | 90 | 323 | 0.0 | 1.7 | 0.00 | 0.00 | 0.00 | 63 | 1011.6 |
| 20260904232512 | 91 | 323 | 0.0 | 1.7 | 0.00 | 0.00 | 0.00 | 63 | 1011.6 |
| 20260904232017 | 91 | 133 | 0.0 | 1.7 | 0.00 | 0.00 | 0.00 | 61 | 1011.6 |
| 20260904231526 | 92 | 138 | 0.0 | 1.7 | 0.00 | 0.00 | 0.00 | 61 | 1011.6 |
| 20260904231014 | 93 | 138 | 0.0 | 2.6 | 0.00 | 0.00 | 0.00 | 60 | 1011.6 |
| 20260904230517 | 94 | 146 | 0.9 | 2.6 | 0.00 | 0.00 | 0.00 | 57 | 1011.7 |
| 20260904230026 | 93 | 243 | 0.9 | 2.6 | 0.00 | 0.00 | 0.00 | 58 | 1011.7 |
| 20260904225515 | 93 | 265 | 0.9 | 2.6 | 0.00 | 0.00 | 0.00 | 56 | 1011.7 |
| 20260904225020 | 93 | 267 | 0.9 | 2.6 | 0.00 | 0.00 | 0.00 | 57 | 1011.7 |
| 20260904224527 | 93 | 265 | 0.0 | 1.7 | 0.00 | 0.00 | 0.00 | 55 | 1011.6 |
| 20260904224014 | 93 | 291 | 0.0 | 1.7 | 0.00 | 0.00 | 0.00 | 61 | 1011.6 |
| 20260904223514 | 92 | 284 | 0.0 | 1.7 | 0.00 | 0.00 | 0.00 | 59 | 1011.6 |
| 20260904223027 | 93 | 288 | 0.0 | 1.7 | 0.00 | 0.00 | 0.00 | 58 | 1011.7 |
| 20260904222517 | 94 | 240 | 0.9 | 3.5 | 0.00 | 0.00 | 0.00 | 55 | 1011.7 |
| 20260904222016 | 94 | 189 | 0.9 | 3.5 | 0.00 | 0.00 | 0.00 | 54 | 1011.7 |
| 20260904221528 | 95 | 293 | 0.9 | 1.7 | 0.00 | 0.00 | 0.00 | 54 | 1011.6 |
| 20260904221017 | 94 | 68 | 0.0 | 1.7 | 0.00 | 0.00 | 0.00 | 58 | 1011.6 |
| 20260904220514 | 94 | 173 | 0.0 | 4.3 | 0.00 | 0.00 | 0.00 | 57 | 1011.6 |
| 20260904220029 | 94 | 327 | 0.0 | 4.3 | 0.00 | 0.00 | 0.00 | 55 | 1011.6 |
| 20260904215513 | 95 | 257 | 0.9 | 3.5 | 0.00 | 0.00 | 0.00 | 54 | 1011.5 |
| 20260904215021 | 95 | 174 | 0.9 | 2.6 | 0.00 | 0.00 | 0.00 | 56 | 1011.5 |
| 20260904214526 | 95 | 330 | 0.9 | 3.5 | 0.00 | 0.00 | 0.00 | 55 | 1011.6 |
| 20260904214012 | 95 | 263 | 1.7 | 3.5 | 0.00 | 0.00 | 0.00 | 53 | 1011.5 |
| 20260904213520 | 95 | 275 | 1.7 | 3.5 | 0.00 | 0.00 | 0.00 | 53 | 1011.5 |
| 20260904213029 | 95 | 253 | 0.9 | 7.0 | 0.00 | 0.00 | 0.00 | 54 | 1011.5 |
| 20260904212507 | 95 | 281 | 2.6 | 6.1 | 0.00 | 0.00 | 0.00 | 53 | 1011.5 |
| 20260904212001 | 95 | 216 | 0.9 | 6.1 | 0.00 | 0.00 | 0.00 | 53 | 1011.4 |
| 20260904211503 | 96 | 223 | 0.9 | 6.1 | 0.00 | 0.00 | 0.00 | 53 | 1011.4 |
| 20260904211012 | 96 | 239 | 1.7 | 5.2 | 0.00 | 0.00 | 0.00 | 53 | 1011.6 |
| 20260904210503 | 96 | 88 | 0.9 | 3.5 | 0.00 | 0.00 | 0.00 | 53 | 1011.6 |
| 20260904210008 | 95 | 313 | 0.9 | 3.5 | 0.00 | 0.00 | 0.00 | 55 | 1011.6 |
| 20260904205506 | 95 | 271 | 0.9 | 3.5 | 0.00 | 0.00 | 0.00 | 55 | 1011.5 |
| 20260904205006 | 96 | 255 | 0.9 | 3.5 | 0.00 | 0.00 | 0.00 | 53 | 1011.5 |
| 20260904204503 | 95 | 190 | 0.9 | 5.2 | 0.00 | 0.00 | 0.00 | 52 | 1011.5 |
| 20260904204003 | 95 | 260 | 2.6 | 7.0 | 0.00 | 0.00 | 0.00 | 53 | 1011.5 |
| 20260904203502 | 95 | 163 | 0.9 | 7.0 | 0.00 | 0.00 | 0.00 | 55 | 1011.6 |
| 20260904203004 | 95 | 294 | 0.9 | 3.5 | 0.00 | 0.00 | 0.00 | 55 | 1011.7 |
| 20260904202502 | 95 | 11 | 1.7 | 3.5 | 0.00 | 0.00 | 0.00 | 53 | 1011.7 |
| 20260904202005 | 94 | 351 | 0.9 | 3.5 | 0.00 | 0.00 | 0.00 | 53 | 1011.8 |
| 20260904201511 | 95 | 195 | 1.7 | 3.5 | 0.00 | 0.00 | 0.00 | 53 | 1011.8 |
| 20260904201003 | 96 | 321 | 0.9 | 3.5 | 0.00 | 0.00 | 0.00 | 58 | 1011.8 |
| 20260904200505 | 95 | 236 | 0.9 | 3.5 | 0.00 | 0.00 | 0.00 | 54 | 1011.8 |
| 20260904200018 | 95 | 110 | 0.9 | 3.5 | 0.00 | 0.00 | 0.00 | 54 | 1011.8 |
| 20260904195503 | 95 | 113 | 0.9 | 5.2 | 0.00 | 0.00 | 0.00 | 54 | 1011.9 |
| 20260904195017 | 95 | 303 | 0.9 | 5.2 | 0.00 | 0.00 | 0.00 | 55 | 1011.9 |
| 20260904194512 | 95 | 299 | 0.9 | 3.5 | 0.00 | 0.00 | 0.00 | 58 | 1011.9 |
| 20260904194011 | 94 | 230 | 0.9 | 5.2 | 0.00 | 0.00 | 0.00 | 55 | 1011.9 |
| 20260904193515 | 94 | 118 | 1.7 | 5.2 | 0.00 | 0.00 | 0.00 | 55 | 1012.0 |
| 20260904193003 | 94 | 161 | 1.7 | 5.2 | 0.00 | 0.00 | 0.00 | 55 | 1012.0 |
| 20260904192502 | 94 | 315 | 1.7 | 3.5 | 0.00 | 0.00 | 0.00 | 56 | 1012.0 |
| 20260904192004 | 94 | 319 | 0.9 | 3.5 | 0.00 | 0.00 | 0.00 | 54 | 1012.1 |
| 20260904191504 | 94 | 128 | 0.9 | 3.5 | 0.00 | 0.00 | 0.00 | 55 | 1012.1 |
| 20260904191007 | 94 | 182 | 1.7 | 5.2 | 0.00 | 0.00 | 0.00 | 54 | 1012.1 |
| 20260904190506 | 94 | 333 | 1.7 | 5.2 | 0.00 | 0.00 | 0.00 | 56 | 1012.1 |
| 20260904190013 | 95 | 275 | 0.9 | 2.6 | 0.00 | 0.00 | 0.00 | 56 | 1012.1 |
| 20260904185506 | 94 | 144 | 0.9 | 5.2 | 0.00 | 0.00 | 0.00 | 56 | 1012.1 |
| 20260904185007 | 93 | 45 | 1.7 | 5.2 | 0.00 | 0.00 | 0.00 | 56 | 1012.1 |
| 20260904184521 | 93 | 293 | 0.0 | 5.2 | 0.00 | 0.00 | 0.00 | 56 | 1012.3 |
| 20260904184013 | 92 | 345 | 1.7 | 5.2 | 0.00 | 0.00 | 0.00 | 58 | 1012.3 |
| 20260904183504 | 93 | 286 | 2.6 | 5.2 | 0.00 | 0.00 | 0.00 | 55 | 1012.3 |
| 20260904183016 | 93 | 281 | 1.7 | 3.5 | 0.00 | 0.00 | 0.00 | 55 | 1012.4 |
| 20260904182514 | 93 | 196 | 0.9 | 2.6 | 0.00 | 0.00 | 0.00 | 56 | 1012.4 |
| 20260904182019 | 93 | 87 | 1.7 | 3.5 | 0.00 | 0.00 | 0.00 | 58 | 1012.4 |
| 20260904181504 | 93 | 261 | 0.9 | 3.5 | 0.00 | 0.00 | 0.00 | 57 | 1012.4 |
| 20260904181004 | 91 | 260 | 0.9 | 2.6 | 0.00 | 0.00 | 0.00 | 56 | 1012.4 |
| 20260904180506 | 93 | 319 | 0.0 | 2.6 | 0.00 | 0.00 | 0.00 | 58 | 1012.5 |
| 20260904180011 | 93 | 325 | 0.9 | 3.5 | 0.00 | 0.00 | 0.00 | 60 | 1012.5 |
| 20260904175509 | 92 | 115 | 0.9 | 3.5 | 0.00 | 0.00 | 0.00 | 59 | 1012.4 |
| 20260904175009 | 92 | 310 | 1.7 | 3.5 | 0.00 | 0.00 | 0.00 | 57 | 1012.5 |
| 20260904174510 | 92 | 163 | 0.9 | 4.3 | 0.00 | 0.00 | 0.00 | 1012.5 | |
| 20260904174008 | 92 | 327 | 0.9 | 4.3 | 0.00 | 0.00 | 0.00 | 1012.6 | |
| 20260904173510 | 91 | 343 | 1.7 | 5.2 | 0.00 | 0.00 | 0.00 | 1012.6 | |
| 20260904173012 | 91 | 171 | 1.7 | 5.2 | 0.00 | 0.00 | 0.00 | 62 | 1012.7 |
| 20260904172504 | 89 | 352 | 0.9 | 6.1 | 0.00 | 0.00 | 0.00 | 62 | 1012.7 |
| 20260904172010 | 90 | 259 | 0.9 | 6.1 | 0.00 | 0.00 | 0.00 | 59 | 1012.7 |
| 20260904171527 | 90 | 297 | 1.7 | 6.1 | 0.00 | 0.00 | 0.00 | 59 | 1012.7 |
| 20260904171016 | 91 | 327 | 0.9 | 6.1 | 0.00 | 0.00 | 0.00 | 58 | 1012.7 |
| 20260904170505 | 90 | 269 | 2.6 | 6.1 | 0.00 | 0.00 | 0.00 | 60 | 1012.6 |
| 20260904170009 | 90 | 132 | 1.7 | 2.6 | 0.00 | 0.00 | 0.00 | 60 | 1012.6 |
| 20260904165508 | 89 | 98 | 0.9 | 2.6 | 0.00 | 0.00 | 0.00 | 62 | 1012.6 |
| 20260904165007 | 89 | 222 | 0.9 | 3.5 | 0.00 | 0.00 | 0.00 | 64 | 1012.7 |
| 20260904164513 | 88 | 147 | 0.9 | 3.5 | 0.00 | 0.00 | 0.00 | 62 | 1012.7 |
| 20260904164011 | 88 | 272 | 0.9 | 3.5 | 0.00 | 0.00 | 0.00 | 65 | 1012.7 |
| 20260904163514 | 87 | 327 | 0.0 | 3.5 | 0.00 | 0.00 | 0.00 | 65 | 1012.7 |
| 20260904163013 | 87 | 263 | 1.7 | 3.5 | 0.00 | 0.00 | 0.00 | 63 | 1012.6 |
| 20260904162510 | 88 | 179 | 0.9 | 6.1 | 0.00 | 0.00 | 0.00 | 62 | 1012.5 |
| 20260904162014 | 88 | 161 | 1.7 | 6.1 | 0.00 | 0.00 | 0.00 | 62 | 1012.5 |
| 20260904161509 | 88 | 300 | 1.7 | 3.5 | 0.00 | 0.00 | 0.00 | 61 | 1012.6 |